Miscellaneous Local Product
Issued by NWS Hastings, NE

Home | Current Version | Previous Version | Graphics & Text | Print | Product List | Glossary On
Versions: 1 2 3 4 5 6 7 8 9 10 11 12 13 14 15 16 17 18 19 20 21 22 23 24 25 26 27 28 29 30 31 32 33 34 35 36 37 38 39 40 41 42 43 44 45 46 47 48 49 50
976
AXUS43 KGID 211702
MISGRI

GID CWA HOURLY WEATHER ROUNDUP
NATIONAL WEATHER SERVICE HASTINGS NE
1100 AM CST TUE FEB 21 2017

NOTE: "FAIR" INDICATES FEW OR NO CLOUDS BELOW 12,000 FEET WITH NO
SIGNIFICANT WEATHER AND/OR OBSTRUCTIONS TO VISIBILITY.

...SOUTH CENTRAL NEBRASKA...

CITY           SKY/WX    TMP DP  RH WIND       PRES   REMARKS
GRAND ISLAND   SUNNY     61  33  35 SW24      29.96F
HASTINGS       SUNNY     61  33  35 SW14G22   29.99S
KEARNEY        SUNNY     61  25  25 SW20G28   29.97F
ORD            SUNNY     63  21  20 SW24      29.89F
YORK           SUNNY     59  37  44 SW18      29.98S
AURORA         SUNNY     61  36  39 SW23      29.97S
LEXINGTON      SUNNY     62  20  19 SW22G28   29.96F
HOLDREGE       SUNNY     56  24  28 SW17G25   29.98F
HEBRON         SUNNY     61  36  38 SW12      30.01F

...NEBRASKA PANHANDLE...

CITY           SKY/WX    TMP DP  RH WIND       PRES   REMARKS
CHADRON        SUNNY     64  33  31 W28G38    29.85F
ALLIANCE       SUNNY     63  30  28 W18G28    29.90F
SCOTTSBLUFF    SUNNY     66  28  24 W35G41    29.90F
SIDNEY         SUNNY     65  27  23 W21G29    29.99R

...WESTERN AND NORTH CENTRAL NEBRASKA...

CITY           SKY/WX    TMP DP  RH WIND       PRES   REMARKS
VALENTINE      SUNNY     66  29  24 SW24G32   29.81F
AINSWORTH      SUNNY     65  32  29 SW18      29.84S
ONEILL         SUNNY     65  25  22 SW13      29.84F
BROKEN BOW     SUNNY     63  26  24 SW14      29.92F
IMPERIAL       SUNNY     66  25  21 W14       29.98F
NORTH PLATTE   SUNNY     60  26  27 W8        29.95F
MCCOOK         SUNNY     60  25  26 W6        29.99S

...EASTERN NEBRASKA...

CITY           SKY/WX    TMP DP  RH WIND       PRES   REMARKS
NORFOLK        SUNNY     62  32  32 SW21G31   29.89F
SO SIOUX CITY  SUNNY     60  42  51 S13       29.91F
TEKAMAH        SUNNY     59  42  53 S17       29.95F
COLUMBUS       SUNNY     61  41  48 SW20G25   29.95F
ALBION         SUNNY     62  24  23 SW18G24   29.91F
OMAHA EPPLEY   MOSUNNY   56  43  61 S6        29.98F
MILLARD        SUNNY     58  42  54 SW8       29.98F
LINCOLN        SUNNY     63  39  41 SW13      29.98F
NEBRASKA CITY  SUNNY     56  38  51 SW10      30.01S
BEATRICE       SUNNY     61  38  43 SW7       30.01F
FALLS CITY     SUNNY     55  44  66 CALM      30.02F

...NORTHERN KANSAS...

CITY           SKY/WX    TMP DP  RH WIND       PRES   REMARKS
GOODLAND       SUNNY     64  24  21 N7        30.04R
HILL CITY      SUNNY     65  25  22 SW14G22   30.03F
NORTON         SUNNY     64  10  12 SW17      29.99F
SMITH CENTER   SUNNY     57  36  44 S10       30.02F
HAYS           SUNNY     61  34  36 SW15      30.05F
RUSSELL        SUNNY     60  34  37 SW14      30.04S
CONCORDIA      SUNNY     62  36  37 W12       30.02F
SALINA         SUNNY     59  40  49 CALM      30.06R
TOPEKA         SUNNY     57  47  69 SW7       30.02S



USA.gov is the U.S. government's official web portal to all federal, state and local government web resources and services.